Location: Ethel Rock
(53.4667°N, 4.5667°W)
Time: 05:33:30
(UTC+00:00)

Cosmos 1674 - Pass Details

Date: 24 October 2020
Orbit: 493 x 518 km, 82.5° (Epoch: 25 November)

Event Time Altitude Azimuth Distance (km) Brightness Sun altitude
Exits shadow 04:48:53 - 182° (S) 1,897 5.5 -20.5°
Reaches altitude 10° 04:49:15 10° 181° (S) 1,746 5.3 -20.4°
Maximum altitude 04:53:04 70° 99° (E) 554 2.9 -19.8°
Drops below altitude 10° 04:56:53 10° 15° (NNE) 1,750 5.6 -19.3°
Sets 04:59:01 0° 13° (NNE) 2,637 6.5 -19.0°
